Back to catalog

STARLINK-30776

AliveCommunicationsVLEO
NORAD 58136·PAYLOAD·🇺🇸 United States

Launched Oct 22, 2023 from Cape Canaveral Space Force Station

Loading…

Next Passes (next 24 hours)

TLE

FreshSource: CelesTrak SupGP

Epoch: Sep 14, 2026, 21:14 UTC

1 58136C 23162U   26257.88520833  .00355180  00000+0  34231-2 0  2579
2 58136  42.9842 119.9954 0029495 250.0266 220.7432 15.64820143    17

Track STARLINK-30776 in real time with AllMySat

Download on the App Store